Daviess Cnty AP, Washington,, IN

11:34 PM EST on November 21, 2019 (GMT -0500)
Daviess County

Weather History for KDCY - July, 2019

Change the Weather History Date:

Tuesday, July 23, 2019

  Actual Average (KLWV) Record (KLWV)
Temperature  
Mean Temperature 67 °F -  
Max Temperature 77 °F 85 °F 102 °F (2012)
Min Temperature 57 °F 65 °F 57 °F (2000)
Cooling Degree Days 2    
Growing Degree Days 17 (Base 50)    
Moisture  
Dew Point 59 °F    
Average Humidity 83    
Maximum Humidity 99    
Minimum Humidity 49    
Precipitation  
Precipitation 0.00 in - - ()
Sea Level Pressure  
Sea Level Pressure 30.07 in    
Wind  
Wind Speed 5 mph (NNW)    
Max Wind Speed 12 mph    
Max Gust Speed 17 mph    
Visibility 10 miles    
Events Rain    
Averages and records for this station are not official NWS values.
T = Trace of Precipitation, MM = Missing Value Source: NWS Daily Summary

Daily Weather History Graph

Daily Weather History Graph

Search for Another Location

Airport or City:

Astronomy

Jul. 23, 2019 Rise Set
Actual Time 6:42 AM EDT 9:07 PM EDT
Civil Twilight 6:11 AM EDT 9:37 PM EDT
Nautical Twilight 5:34 AM EDT 10:15 PM EDT
Astronomical Twilight 4:52 AM EDT 10:56 PM EDT
Moon 12:32 AM EDT (7/23) 12:51 PM EDT (7/23)
Length of Visible Light 15h 26m
Length of Day
14h 25m
Waning Gibbous, 63% of the Moon is Illuminated
Jul 23
Waning Gibbous
Jul 24
Last Quarter
Jul 31
New
Aug 7
First Quarter
Aug 15
Full

Hourly Weather History & Observations

Time (EDT) Temp. Dew Point Humidity Pressure Visibility Wind Dir Wind Speed Gust Speed Precip Events Conditions
12:15 AM 63.9 °F 56.5 °F 77% 30.05 in 10.0 mi North 6.9 mph - N/A   Clear
12:35 AM 63.0 °F 57.0 °F 81% 30.05 in 10.0 mi North 4.6 mph - N/A   Clear
12:55 AM 62.2 °F 56.8 °F 82% 30.06 in 10.0 mi North 4.6 mph - N/A   Clear
1:15 AM 61.3 °F 56.8 °F 85% 30.05 in 10.0 mi NNW 4.6 mph - N/A   Clear
1:35 AM 60.6 °F 57.2 °F 88% 30.05 in 10.0 mi North 3.5 mph - N/A   Clear
1:55 AM 60.3 °F 57.2 °F 90% 30.05 in 10.0 mi North 3.5 mph - N/A   Clear
2:15 AM 60.1 °F 57.2 °F 90% 30.05 in 10.0 mi NNW 3.5 mph - N/A   Clear
2:35 AM 59.7 °F 57.6 °F 93% 30.05 in 10.0 mi NNW 4.6 mph - N/A   Clear
2:55 AM 59.5 °F 57.2 °F 92% 30.05 in 10.0 mi NW 5.8 mph - N/A   Clear
3:15 AM 59.0 °F 58.3 °F 97% 30.05 in 10.0 mi NW 5.8 mph - N/A   Clear
3:35 AM 59.0 °F 57.2 °F 94% 30.05 in 10.0 mi NNW 3.5 mph - N/A   Clear
3:55 AM 58.8 °F 56.7 °F 93% 30.05 in 10.0 mi NNW 4.6 mph - N/A   Clear
4:15 AM 58.5 °F 56.5 °F 93% 30.05 in 10.0 mi NNW 3.5 mph - N/A   Clear
4:35 AM 58.1 °F 56.7 °F 95% 30.05 in 10.0 mi NNW 3.5 mph - N/A   Clear
4:55 AM 57.7 °F 57.4 °F 99% 30.05 in 10.0 mi NNW 3.5 mph - N/A   Clear
5:15 AM 57.6 °F 57.2 °F 99% 30.05 in 10.0 mi NNW 3.5 mph - N/A   Clear
5:35 AM 57.6 °F 56.7 °F 97% 30.06 in 10.0 mi NW 3.5 mph - N/A   Clear
5:55 AM 57.6 °F 56.7 °F 97% 30.06 in 10.0 mi NW 3.5 mph - N/A   Clear
6:15 AM 57.4 °F 56.5 °F 97% 30.06 in 10.0 mi NW 3.5 mph - N/A   Clear
6:35 AM 57.0 °F 56.7 °F 99% 30.06 in 10.0 mi NW 3.5 mph - N/A   Clear
6:55 AM 57.2 °F 56.8 °F 99% 30.07 in 10.0 mi Calm Calm - N/A   Clear
7:15 AM 57.4 °F 57.2 °F 99% 30.07 in 10.0 mi NW 3.5 mph - N/A   Clear
7:35 AM 58.1 °F 57.4 °F 97% 30.08 in 10.0 mi NW 3.5 mph - N/A   Clear
7:55 AM 59.0 °F 58.1 °F 97% 30.08 in 10.0 mi NW 3.5 mph - N/A   Clear
8:15 AM 59.9 °F 57.2 °F 91% 30.10 in 10.0 mi NNW 3.5 mph - N/A   Clear
8:35 AM 61.5 °F 56.1 °F 82% 30.10 in 10.0 mi North 5.8 mph - N/A   Clear
8:55 AM 62.8 °F 55.8 °F 78% 30.10 in 10.0 mi North 6.9 mph - N/A   Clear
9:15 AM 63.7 °F 55.8 °F 75% 30.10 in 10.0 mi North 9.2 mph - N/A   Clear
9:35 AM 65.1 °F 56.1 °F 73% 30.11 in 10.0 mi North 6.9 mph - N/A   Clear
9:55 AM 66.4 °F 57.0 °F 72% 30.11 in 10.0 mi North 6.9 mph - N/A   Clear
10:15 AM 67.3 °F 57.2 °F 70% 30.11 in 10.0 mi North 5.8 mph - N/A   Clear
10:35 AM 68.9 °F 57.7 °F 68% 30.11 in 10.0 mi North 8.1 mph - N/A   Clear
10:55 AM 70.3 °F 58.6 °F 66% 30.11 in 10.0 mi North 6.9 mph - N/A   Clear
11:15 AM 71.8 °F 58.6 °F 63% 30.12 in 10.0 mi North 10.4 mph - N/A   Clear
11:35 AM 72.9 °F 59.2 °F 62% 30.12 in 10.0 mi North 9.2 mph - N/A   Clear
11:55 AM 73.6 °F 57.6 °F 57% 30.12 in 10.0 mi North 6.9 mph - N/A   Clear
12:15 PM 74.8 °F 57.7 °F 55% 30.12 in 10.0 mi North 10.4 mph - N/A   Clear
12:35 PM 75.2 °F 57.2 °F 53% 30.11 in 10.0 mi North 9.2 mph - N/A   Clear
12:55 PM 75.7 °F 55.6 °F 49% 30.11 in 10.0 mi NNW 5.8 mph - N/A   Clear
1:15 PM - - N/A% 30.11 in 10.0 mi North 8.1 mph - N/A   Clear
1:35 PM - - N/A% 30.11 in 10.0 mi North 5.8 mph - N/A   Clear
1:55 PM - - N/A% 30.10 in 10.0 mi NNE 8.1 mph - N/A   Clear
2:15 PM - - N/A% 30.10 in 10.0 mi North 11.5 mph 17.3 mph N/A   Clear
2:35 PM - - N/A% 30.10 in 10.0 mi North 9.2 mph - N/A   Clear
2:55 PM - - N/A% 30.09 in 10.0 mi North 11.5 mph 17.3 mph N/A   Scattered Clouds
3:15 PM - - N/A% 30.09 in 10.0 mi North 6.9 mph - N/A   Scattered Clouds
3:35 PM - - N/A% 30.08 in 10.0 mi NNW 10.4 mph - N/A   Clear
3:55 PM - - N/A% 30.08 in 10.0 mi NNW 10.4 mph 17.3 mph N/A   Scattered Clouds
4:15 PM - - N/A% 30.07 in 10.0 mi NNW 9.2 mph - N/A   Scattered Clouds
4:35 PM - - N/A% 30.06 in 10.0 mi North 9.2 mph - N/A   Scattered Clouds
4:55 PM - - N/A% 30.06 in 10.0 mi North 9.2 mph - N/A   Scattered Clouds
5:15 PM - - N/A% 30.06 in 10.0 mi NNW 10.4 mph 17.3 mph N/A   Scattered Clouds
5:35 PM - - N/A% 30.05 in 10.0 mi NNW 9.2 mph - N/A   Scattered Clouds
5:55 PM - - N/A% 30.05 in 10.0 mi NNW 10.4 mph - N/A   Scattered Clouds
6:15 PM - - N/A% 30.04 in 10.0 mi NNW 9.2 mph - N/A   Clear
6:35 PM - - N/A% 30.04 in 10.0 mi NNW 9.2 mph - N/A   Clear
6:55 PM - - N/A% 30.04 in 10.0 mi NNW 9.2 mph - N/A   Clear
7:15 PM - - N/A% 30.04 in 10.0 mi NNW 6.9 mph - N/A   Clear
7:35 PM 77.9 °F 57.9 °F 50% 30.04 in 10.0 mi NNW 6.9 mph - N/A   Clear
7:55 PM 76.3 °F 59.4 °F 56% 30.04 in 10.0 mi NNW 4.6 mph - N/A   Clear
8:15 PM 74.3 °F 63.1 °F 68% 30.05 in 10.0 mi Calm Calm - N/A   Clear
8:35 PM 73.6 °F 63.3 °F 70% 30.05 in 10.0 mi Calm Calm - N/A   Clear
8:55 PM 70.9 °F 65.7 °F 83% 30.05 in 10.0 mi Calm Calm - N/A   Clear
9:15 PM 68.5 °F 64.4 °F 87% 30.05 in 10.0 mi West 3.5 mph - N/A   Scattered Clouds
9:35 PM 68.2 °F 64.6 °F 88% 30.05 in 10.0 mi Calm Calm - N/A   Mostly Cloudy
9:55 PM 68.9 °F 65.1 °F 88% 30.05 in 10.0 mi Calm Calm - N/A   Overcast
10:15 PM 69.8 °F 66.2 °F 88% 30.07 in 10.0 mi Calm Calm - N/A Rain Light Rain
10:35 PM 69.1 °F 68.9 °F 99% 30.07 in 10.0 mi Calm Calm - N/A   Overcast
10:55 PM 68.9 °F 68.4 °F 98% 30.07 in 10.0 mi WSW 3.5 mph - N/A   Overcast
11:15 PM 68.4 °F 66.9 °F 95% 30.07 in 10.0 mi West 6.9 mph - N/A   Overcast
11:35 PM 69.3 °F 66.9 °F 92% 30.08 in 10.0 mi Calm Calm - N/A Rain Light Rain
11:55 PM 68.4 °F 67.1 °F 96% 30.08 in 10.0 mi WSW 4.6 mph - N/A   Overcast